TimeICT,TemperatureF,Dew PointF,Humidity,Sea Level PressureIn,VisibilityMPH,Wind Direction,Wind SpeedMPH,Gust SpeedMPH,PrecipitationIn,Events,Conditions,WindDirDegrees,DateUTC
12:00 AM,84.2,78.8,84,29.74,5.6,WSW,3.5,-,N/A,,Unknown,240,2014-03-27 17:00:00
12:30 AM,84.2,78.8,84,29.74,5.6,West,6.9,-,N/A,,Unknown,260,2014-03-27 17:30:00
1:00 AM,84.2,78.8,84,29.74,5.6,West,6.9,-,N/A,,Unknown,260,2014-03-27 18:00:00
7:00 AM,80.6,77.0,89,29.80,5.6,ENE,4.6,-,N/A,,Scattered Clouds,60,2014-03-28 00:00:00
7:30 AM,82.4,77.0,84,29.80,5.6,East,4.6,-,N/A,,Scattered Clouds,100,2014-03-28 00:30:00
8:00 AM,82.4,77.0,84,29.83,6.2,East,6.9,-,N/A,,Scattered Clouds,100,2014-03-28 01:00:00
8:30 AM,84.2,77.0,79,29.83,6.2,SE,4.6,-,N/A,,Scattered Clouds,130,2014-03-28 01:30:00
9:00 AM,86.0,77.0,74,29.86,6.2,East,3.5,-,N/A,,Scattered Clouds,80,2014-03-28 02:00:00
9:30 AM,87.8,77.0,70,29.86,6.2,SSE,8.1,-,N/A,,Scattered Clouds,150,2014-03-28 02:30:00
10:00 AM,87.8,77.0,70,29.86,6.2,SSE,4.6,-,N/A,,Mostly Cloudy,160,2014-03-28 03:00:00
10:30 AM,87.8,77.0,70,29.83,6.2,SSE,6.9,-,N/A,,Mostly Cloudy,160,2014-03-28 03:30:00
11:00 AM,89.6,77.0,66,29.83,6.2,SSE,8.1,-,N/A,,Mostly Cloudy,160,2014-03-28 04:00:00
12:00 PM,89.6,77.0,66,29.80,6.2,WSW,6.9,-,N/A,,Mostly Cloudy,250,2014-03-28 05:00:00
12:30 PM,89.6,77.0,66,29.77,6.2,ENE,6.9,-,N/A,,Mostly Cloudy,70,2014-03-28 05:30:00
1:00 PM,93.2,75.2,56,29.77,6.2,WNW,9.2,-,N/A,,Scattered Clouds,290,2014-03-28 06:00:00
1:30 PM,93.2,75.2,56,29.74,6.2,West,5.8,-,N/A,,Scattered Clouds,270,2014-03-28 06:30:00
2:00 PM,93.2,73.4,52,29.74,6.2,SW,2.3,-,N/A,,Scattered Clouds,230,2014-03-28 07:00:00
2:30 PM,95.0,71.6,47,29.71,6.2,SSW,5.8,-,N/A,,Scattered Clouds,200,2014-03-28 07:30:00
3:00 PM,95.0,69.8,44,29.68,6.2,South,2.3,-,N/A,,Scattered Clouds,190,2014-03-28 08:00:00
3:30 PM,93.2,69.8,46,29.68,6.2,South,6.9,-,N/A,,Scattered Clouds,180,2014-03-28 08:30:00
4:00 PM,93.2,71.6,49,29.68,6.2,SW,9.2,-,N/A,,Scattered Clouds,230,2014-03-28 09:00:00
4:30 PM,91.4,73.4,55,29.68,6.2,SSW,6.9,-,N/A,,Scattered Clouds,200,2014-03-28 09:30:00
5:00 PM,91.4,73.4,55,29.68,6.2,SSE,6.9,-,N/A,,Scattered Clouds,160,2014-03-28 10:00:00
6:30 PM,89.6,77.0,66,29.71,5.6,South,4.6,-,N/A,,Scattered Clouds,180,2014-03-28 11:30:00
7:00 PM,87.8,77.0,70,29.71,5.6,SW,8.1,-,N/A,,Scattered Clouds,220,2014-03-28 12:00:00
7:30 PM,86.0,77.0,74,29.71,5.6,SSW,5.8,-,N/A,,Scattered Clouds,210,2014-03-28 12:30:00
8:00 PM,84.2,77.0,79,29.74,5.6,WSW,5.8,-,N/A,,Scattered Clouds,240,2014-03-28 13:00:00
8:30 PM,84.2,73.4,70,29.74,5.6,WSW,5.8,-,N/A,,Scattered Clouds,250,2014-03-28 13:30:00
9:00 PM,84.2,73.4,70,29.77,5.6,WSW,5.8,-,N/A,,Scattered Clouds,250,2014-03-28 14:00:00
9:30 PM,82.4,75.2,79,29.77,5.6,SW,6.9,-,N/A,,Scattered Clouds,230,2014-03-28 14:30:00
10:00 PM,80.6,75.2,84,29.77,5.6,SW,4.6,-,N/A,,Scattered Clouds,220,2014-03-28 15:00:00
10:30 PM,80.6,75.2,84,29.77,5.6,SW,4.6,-,N/A,,Scattered Clouds,230,2014-03-28 15:30:00
11:00 PM,80.6,75.2,84,29.77,5.6,SSW,3.5,-,N/A,,Scattered Clouds,210,2014-03-28 16:00:00
11:30 PM,80.6,75.2,84,29.77,5.6,SW,3.5,-,N/A,,Scattered Clouds,230,2014-03-28 16:30:00